{"data":{"norad_id":51781,"epoch":"2026-09-20T03:06:24.790176Z","epoch_age_seconds":84237,"freshness":"FRESH","line1":"1 51781U 22017P   26263.12945359  .00002077  00000+0  70470-4 0  9998","line2":"2 51781  53.1590 173.6466 0001161  80.7534 279.3601 15.35387060251943","mean_motion":15.3538706,"eccentricity":0.0001161,"inclination_deg":53.159,"raan_deg":173.6466,"arg_perigee_deg":80.7534,"mean_anomaly_deg":279.3601,"bstar":7.047e-5,"rev_number":25194,"period_min":93.787425823427,"perigee_km":458.97718055248,"apogee_km":460.5649428044,"semimajor_km":6837.9080616784,"source":"CELESTRAK","updated_at":"2026-09-20T09:00:39.938586Z"}}